STARLINK-30175, 57311

Orbit data source: Space-Track

STARLINK-30175, 57311 is a payload satellite owned by SpaceX/Seattle (US) in LEO that was launched on Mon, 10 Jul 2023 UTC via an FALCON 9 launch vehicle from the Air Force Eastern Test Range (AFETR). Payload-class satellites include a variety of spacecraft equipped with specific instruments for various scientific and technological missions. These include communications satellites like Starlink; space stations such as the ISS; scientific satellites like the Hubble; Earth observation satellites from companies like Planet Labs, Umbra, and HawkEye 360; GPS; miniature CubeSats for education and research; and military/defense satellites.

Loading next visibility...
Identifier
57311, 2023-096X
Orbit
LEO
Country
Flag of USUS
Related business
Manufacturer
SpaceX/Seattle
Mission
Partially operational Commercial Communications
Bus & Motor
STARLINK V2M, Unknown motor
Mass
730 kg wet, ~700 kg dry
Launch date (UTC)
2023-07-10 (2 years ago)
Launch vehicle
FALCON 9
Launch site
Air Force Eastern Test Range (AFETR)
Object type
Payload
Rocket body
Debris
Shape & HBR
Box + 2 Pan, 17.7 m
Radar Cross Section
33.884 m², Large (>1 m²)

Expand to show TLE details & history
Last TLE update: 14 hours ago

TLE from 14 hours ago
0 STARLINK-30175
1 57311U 23096X   25341.00002315  .00262778  00000-0  55791-2 0  9994
2 57311  42.9859 333.3718 0029761 105.9464 354.9402 15.42861697  5874
Epoch: 2025-12-07T00:00Z
TLE epoch observation values (Epoch: 2025-12-07T00:00:02.000Z)
Latitude
42.19473°
Longitude
2.04944°
Altitude
420.393 km
Speed
7.676 km/s
True Right ascension
05h 12m 18s
True Declination
42° 00' 55"
Sunlit
Object was in full shadow at epoch
Visualization orbit readout
Latitude
Unknown
Longitude
Unknown
Altitude
Unknown
Speed
Unknown
Apparent Right ascension
Unknown
Apparent Declination
Unknown
Sunlit
N/A
Visualization observer readout
Local Sidereal Time
12:18:31
Azimuth
Unknown
Elevation
Unknown
Doppler factor
Unknown
Orbital elements
Apogee altitude
459.919 km
Perigee altitude
419.338 km
Semi-major axis
6,817.766 km
Eccentricity
0.00298
Inclination
42.9859°
RAAN
333.3718°
Arg. of periapsis
105.9464°
True anomaly
354.91001°
Mean anomaly
354.9402°
Eccentric anomaly
354.92512°
Mean motion
3.85549 °/min
Orbital period
93.37 mins
BSTAR
0.0055791
Loading maneuver chart data...
Computing Atmospheric mass density...
Loading historical data...
Loading historical data...
Loading historical data...
Loading historical data...
Loading historical data...
Loading historical data...
Loading historical data...

Documentation

Showing up to 5 results
|